User: anonymous   Login
Location: NJAA Observatory
(40.6819°N, 74.8979°W)
Time: 14:15:39
(UTC-04:00)
Language:

Iridium 84 - Orbit

View from above orbital plane
View from above orbital plane
View from above satellite
View from above satellite

Ground track
Ground track

The orbit data is extracted from the following two-line orbital elements,

1 25530U 98066D   15183.38970491  .00000222  00000-0  72086-4 0  9996
2 25530 086.3966 289.1871 0002270 094.3792 265.7663 14.34215875874404
Epoch (UTC): 02 July 2015 09:21:10
Eccentricity: 0.0002270
inclination: 86.3966°
perigee height: 776 km
apogee height: 779 km
right ascension of ascending node: 289.1871°
argument of perigee: 94.3792°
revolutions per day: 14.34215875
mean anomaly at epoch: 265.7663°
orbit number at epoch: 87440

The dashed part of the orbit path shows where the satellite is in the earth's shadow,  

DLR